Temp_Advection
nan nan nan nan nan nan nan nan nan nan nan nan nan nan nan nan nan nan nan nan nan nan nan nan nan nan nan nan nan nan nan nan nan nan nan nan nan nan nan nan nan nan nan
nan -0 -0 -0 -0 -0 -0 -0 -0 -0 -0 -0 -0 -0 -0 -1 -1 -1 -1 -1 -0 -1 -0 -0 -1 -1 -1 -1 -1 -1 -0 -0 -0 -0 -0 -0 -0 -0 0 0 0 0 nan
nan -0 -0 -0 -0 -0 -0 -0 -0 -0 -0 -0 -0 -0 -0 -0 -1 -1 -1 -1 -1 -1 -1 -0 -1 -1 -1 -1 -1 -0 -0 -0 -0 -0 -0 -0 0 -0 0 1 1 0 nan
nan -0 -0 -0 -0 -0 -0 -0 -0 -0 -0 -0 -0 -0 -0 -0 -0 -1 -0 -1 -1 -0 -0 -1 -1 -1 -1 -1 -1 -0 -0 -0 0 -0 -0 0 0 -0 0 0 1 1 nan
nan -0 -0 -0 -0 -0 -0 -0 -0 -0 -0 -0 -1 -1 -0 -0 -1 -1 -0 -0 -1 -1 -0 -1 -2 -1 -1 -1 -2 -1 -0 0 -0 -1 -0 0 0 -0 -0 0 0 1 nan
nan -0 -0 -0 -0 -0 -0 -0 -0 -1 -0 -0 -0 -0 -1 -1 -1 -0 -0 -0 -1 -1 -1 -1 -1 -2 -2 -1 -1 -0 -0 -0 -0 -0 0 0 -0 -0 -0 1 1 0 nan
nan -0 0 -0 -0 -0 -0 -0 -0 -0 -1 -0 -0 -0 -0 -0 -1 -1 -1 -0 -0 -0 -1 -1 -1 -1 -1 -2 -1 -0 -0 -0 -0 -0 -0 -0 -0 -0 0 0 -0 -0 nan
nan -0 -0 -0 -0 -0 -1 -1 0 -0 -0 -0 -0 0 -0 -0 -0 -0 -0 -0 -0 -1 -1 -1 -1 -1 -1 -1 -1 -2 -1 -0 -0 -0 -0 -0 -0 -0 -0 0 1 1 nan
nan -0 0 0 -0 -0 -0 -1 -0 0 -0 -0 -0 -0 -0 -1 0 0 -0 -0 -1 -1 -1 -1 -1 -1 -1 -1 -1 -1 -1 -1 -0 0 0 -0 -0 0 0 1 1 1 nan
nan -0 0 0 -0 -0 -0 -1 -1 0 -0 -1 -1 0 0 -0 -0 -0 -0 -0 -1 -1 -1 -1 -1 -1 -0 -1 -2 -1 -1 -1 -0 -0 0 0 0 1 0 0 0 1 nan
nan -0 0 0 -0 -0 -1 -1 -1 -0 -0 -1 -1 -0 0 0 0 -0 -0 -0 -0 -1 -1 -2 -1 -0 -0 -1 -1 -1 -1 -1 -0 0 0 1 1 1 0 1 1 1 nan
nan 0 0 0 -0 -0 -1 -1 -1 -1 -1 -1 -1 -1 -0 -0 -0 -0 -0 -0 -0 -0 -1 -2 -1 -1 -1 -1 -1 -0 -0 -0 0 1 1 1 1 0 1 1 1 1 nan
nan -0 0 0 0 -0 -1 -1 -1 -1 -1 -1 -1 -1 -1 -0 -0 -0 -0 -0 -0 -0 -1 -1 -1 -1 -1 -0 0 0 0 0 1 1 1 1 1 1 1 1 1 1 nan
nan -1 -0 -1 -1 -1 -1 -1 -1 -1 -1 -0 -1 -1 -1 -0 -0 -0 -0 -0 -0 -0 -0 -0 -0 -0 0 1 1 1 1 0 0 1 1 1 1 1 1 1 0 0 nan
nan -1 -1 -0 -0 -1 -1 -1 -1 -0 1 -0 -1 -1 -1 -0 -0 -0 -0 -0 -0 -0 -0 0 -0 0 1 1 1 1 1 1 1 1 1 0 0 0 0 1 1 0 nan
nan -0 -0 -0 -0 -0 -1 -1 -1 -0 -0 0 0 0 -0 -0 -0 -0 -0 -0 -0 -0 0 0 0 1 1 1 0 0 0 1 1 1 0 0 1 0 -0 0 0 0 nan
nan -0 -0 -0 -0 -0 -1 -1 -3 -1 0 0 0 -0 -0 -0 -0 -0 -0 0 -0 0 0 0 0 0 1 0 0 0 0 1 1 1 1 1 0 1 0 -0 0 0 nan
nan -0 -0 -0 -0 -0 -0 -0 -1 -2 -1 -1 -0 -0 -0 -0 -0 -0 0 -0 0 0 0 0 0 0 1 1 1 1 1 1 1 1 0 0 1 0 0 0 0 1 nan
nan -0 -0 -0 -0 -0 -1 -0 -0 -0 -0 -1 -0 -0 -0 -0 -0 -0 -0 -0 -0 0 0 0 0 0 1 1 1 1 1 1 1 1 1 0 0 1 0 0 0 0 nan
nan -0 -0 -0 -1 -0 -0 -0 -0 -0 -0 -0 -0 -0 0 0 0 0 -0 -0 0 0 0 0 0 0 1 1 1 1 1 -0 1 0 0 0 0 0 0 0 0 0 nan
nan 0 -0 -0 0 -0 -0 -0 -0 -0 -0 -0 -0 -0 0 0 0 0 0 0 0 0 0 0 0 0 0 0 1 0 0 0 -0 0 0 0 0 0 0 0 0 0 nan
nan -0 0 -0 -0 -0 0 0 -0 0 0 -0 -0 -0 0 0 0 -0 -0 0 0 0 0 0 0 0 1 0 -0 1 -0 -0 0 0 0 0 0 0 0 0 0 0 nan
nan -0 -0 0 0 -0 0 0 0 0 0 0 -0 -0 -0 -0 -0 -0 0 0 0 0 0 0 0 0 0 1 0 0 0 0 0 0 0 -0 0 0 0 0 0 0 nan
nan 0 0 -0 0 0 0 0 0 -0 -0 -0 -0 -0 -0 -0 -0 0 0 0 0 0 0 0 1 0 0 0 0 0 1 0 0 0 0 0 -0 0 0 0 0 0 nan
nan 0 0 0 0 0 -0 -0 -0 -0 -0 -0 -0 -0 0 -0 -0 0 0 0 0 1 1 0 0 0 0 0 0 0 0 0 0 0 0 0 0 0 0 0 0 0 nan
nan nan nan nan nan nan nan nan nan nan nan nan nan nan nan nan nan nan nan nan nan nan nan nan nan nan nan nan nan nan nan nan nan nan nan nan nan nan nan nan nan nan nan
Wind_Speed
24 25 26 26 26 25 25 25 24 23 24 24 23 23 23 24 22 21 21 24 21 27 23 23 20 23 23 30 26 26 28 27 28 23 25 22 19 17 17 18 20 20 22
26 26 27 26 25 25 25 25 24 24 24 24 24 24 24 24 23 22 24 24 22 27 26 22 24 25 26 25 28 31 29 27 26 24 26 27 22 21 19 18 19 14 15
27 27 28 27 25 25 26 26 25 25 24 24 24 25 25 25 23 24 25 25 25 25 29 25 24 24 23 28 24 24 28 29 27 28 28 27 26 25 23 21 19 20 18
28 28 28 26 26 26 27 27 27 26 27 27 25 26 27 27 25 25 24 26 26 25 29 28 27 26 25 26 28 24 26 29 27 30 28 28 28 26 25 23 24 23 22
29 30 30 28 27 27 28 28 29 30 30 30 29 27 26 26 27 24 24 24 24 25 27 28 28 28 29 28 29 31 22 29 30 30 28 30 30 29 28 28 26 26 26
30 31 31 29 29 28 30 30 31 32 30 29 29 29 28 26 24 25 26 28 27 27 28 28 29 29 29 30 34 32 34 27 33 37 35 31 33 34 31 32 30 29 28
31 32 31 30 31 31 31 31 32 32 31 30 29 28 29 27 25 25 25 27 28 29 30 29 29 28 28 28 30 35 35 34 36 34 35 33 33 34 30 31 35 33 33
30 30 31 32 33 33 32 32 32 31 31 30 29 27 27 26 25 25 25 27 29 30 32 33 33 32 32 29 28 31 33 33 34 34 33 30 28 30 29 37 36 35 32
30 32 35 33 34 33 33 33 32 31 30 29 28 28 27 29 27 26 24 27 28 28 29 28 30 32 31 27 27 29 27 33 28 34 36 32 28 29 29 35 37 36 33
31 35 36 34 33 34 33 33 32 30 30 30 29 28 28 29 26 22 23 25 27 29 28 28 29 29 30 30 30 30 30 35 30 27 35 35 30 29 32 35 25 33 35
34 36 36 36 33 32 32 31 31 30 30 30 29 29 27 25 24 22 22 24 25 27 29 31 30 28 28 28 30 30 31 31 36 37 32 32 24 28 28 24 22 24 30
34 36 37 37 35 32 31 31 30 29 29 29 28 29 28 28 27 24 22 22 24 26 29 30 29 26 26 27 28 26 30 33 36 33 30 31 29 27 24 24 22 22 23
36 39 40 38 35 30 31 29 31 28 27 29 28 30 33 34 31 25 22 21 22 25 28 29 24 23 22 25 27 31 31 30 33 32 31 32 32 31 30 28 26 24 20
38 40 41 38 34 32 31 29 29 28 28 28 29 34 37 36 31 23 19 19 16 18 18 14 19 16 17 28 31 32 29 35 29 31 33 35 33 32 30 26 25 21 18
39 41 39 37 37 36 32 30 28 26 26 30 33 33 35 33 27 20 18 16 11 10 18 21 22 20 24 29 29 30 37 34 33 37 39 38 36 32 27 25 22 22 21
41 40 39 37 37 34 34 36 29 27 23 23 22 25 27 24 20 16 12 8 8 15 20 21 22 25 27 28 31 35 34 34 38 43 38 38 35 31 29 27 24 22 21
38 40 39 36 35 34 35 36 37 32 24 20 21 21 18 17 13 9 5 4 8 17 19 19 21 25 28 31 34 34 35 37 41 37 36 35 32 31 29 27 24 20 19
38 34 33 36 35 37 34 32 31 30 30 27 20 18 16 11 7 3 2 4 7 12 15 16 20 24 29 32 33 34 37 39 37 35 33 31 30 29 27 24 21 20 19
37 38 36 36 36 31 30 28 26 24 23 23 20 15 11 8 5 3 4 4 4 9 11 14 18 23 27 31 34 36 36 35 33 31 31 29 27 25 23 21 21 20 20
40 36 33 32 31 29 27 26 23 22 22 20 18 15 9 9 8 5 2 1 5 8 11 16 19 24 28 32 35 36 36 33 31 30 28 26 24 21 21 22 22 23 20
42 38 30 29 28 27 25 23 22 21 20 19 16 11 6 9 6 3 1 2 5 10 14 19 24 28 32 34 34 33 32 31 28 27 26 24 23 23 22 23 22 20 19
36 31 29 28 27 25 23 22 20 19 18 16 12 4 4 7 6 2 4 7 10 13 18 24 27 29 29 30 31 30 29 28 26 25 23 22 22 22 23 23 21 20 19
30 28 27 26 24 23 23 19 18 16 15 11 7 3 3 5 3 3 8 12 15 19 22 25 28 30 30 27 25 24 24 24 22 21 21 23 23 23 22 21 21 20 18
28 26 26 25 26 24 21 19 17 15 12 7 4 3 1 2 4 9 13 17 20 22 24 26 24 23 23 23 22 21 19 19 19 19 19 21 23 22 22 21 20 18 18
26 26 25 26 26 24 21 18 17 16 10 6 3 1 1 4 12 17 20 22 24 23 21 20 21 22 22 21 21 20 19 17 17 18 18 18 19 20 20 19 18 17 16
27 26 26 26 25 23 21 18 17 15 10 6 2 2 4 12 18 20 22 23 19 18 19 20 20 21 21 20 19 19 18 18 18 18 18 18 18 19 19 17 17 16 15
Wind_Direction
314 312 312 309 308 306 302 299 297 297 298 297 295 293 291 289 285 279 272 269 266 270 270 262 254 249 250 243 244 246 247 248 246 243 253 261 259 248 240 240 248 242 230
314 313 312 310 310 306 303 300 299 298 298 297 296 293 289 287 285 279 273 271 266 270 264 268 259 249 249 245 247 247 243 245 248 248 251 258 253 241 234 238 240 236 236
314 315 312 311 310 306 303 301 301 300 298 296 294 292 289 284 279 275 273 270 266 265 267 263 262 255 253 242 243 255 248 250 246 243 251 249 244 243 236 228 229 227 218
315 314 312 312 311 306 303 303 301 300 296 295 293 290 287 285 280 275 271 270 267 262 265 263 265 261 254 248 242 244 249 247 242 244 247 244 244 236 230 228 217 210 203
315 316 314 311 310 307 303 303 302 302 301 298 297 291 288 285 282 278 271 268 266 268 265 267 266 264 252 243 243 235 245 243 247 229 247 240 239 231 229 213 207 213 205
316 315 314 314 311 308 306 306 305 306 307 303 296 295 297 286 282 277 275 275 272 267 266 266 268 267 259 246 241 240 241 254 243 235 243 240 240 236 228 219 210 200 199
316 317 316 314 311 309 308 306 309 310 308 306 302 297 295 292 284 280 277 274 272 271 267 267 267 265 263 258 245 238 242 246 236 235 244 244 240 237 223 218 211 217 216
315 316 314 313 311 310 309 311 312 309 307 305 304 303 301 300 289 283 280 276 274 270 267 268 269 265 262 258 249 241 244 247 232 241 247 248 250 238 236 234 221 214 213
318 314 315 315 313 313 310 310 312 312 310 308 306 304 300 298 295 287 280 276 273 268 267 267 272 270 267 259 247 236 245 243 243 233 243 238 247 224 242 237 215 215 201
315 316 319 318 316 312 310 310 312 311 310 310 307 307 307 300 299 292 282 273 272 270 267 266 268 267 263 257 242 235 242 237 236 232 227 230 233 229 233 230 223 222 209
317 321 320 321 316 313 310 310 311 314 312 309 306 311 311 313 312 303 288 278 271 269 268 267 268 261 254 248 230 232 235 237 235 235 224 215 231 213 195 203 204 214 207
320 321 321 322 319 317 313 311 310 311 311 312 310 314 319 324 313 305 296 281 273 267 267 268 269 262 249 236 222 229 235 229 221 206 201 204 208 181 187 187 183 186 195
321 325 328 328 324 322 315 311 313 314 310 312 312 313 315 317 312 311 298 286 275 266 262 267 268 254 231 217 214 220 224 217 203 190 177 178 178 179 177 173 170 175 177
322 327 329 324 321 319 321 317 314 310 312 313 311 311 314 313 312 311 300 294 279 268 263 237 219 227 205 194 197 207 212 188 187 192 188 176 165 161 159 163 166 165 166
326 326 323 323 324 321 317 317 315 314 311 306 306 308 311 308 309 306 298 294 286 257 195 199 205 197 183 182 186 188 181 184 185 172 163 158 156 155 156 157 164 161 164
324 322 326 321 320 318 322 325 323 317 322 318 315 314 308 304 307 303 292 276 269 213 201 193 179 172 171 170 171 169 170 173 169 162 161 161 158 158 159 158 162 161 162
325 327 321 318 321 321 325 320 319 329 331 335 336 328 317 314 309 300 284 249 236 207 202 190 180 172 165 164 163 165 162 163 162 162 161 159 155 157 161 159 158 160 159
330 321 320 323 322 320 315 316 317 322 329 339 347 341 334 341 352 351 263 253 221 203 203 192 180 171 164 162 161 160 159 159 161 159 156 154 159 160 158 157 156 159 158
330 328 324 320 314 314 316 320 323 325 329 334 343 340 334 349 352 313 299 284 221 194 196 187 181 175 168 163 157 155 155 155 154 150 153 155 156 158 156 155 153 153 153
332 325 319 318 320 324 326 326 329 330 334 338 342 330 312 337 336 334 325 245 191 188 181 176 171 166 160 156 152 150 150 145 147 153 152 153 154 157 157 156 155 153 151
325 327 329 329 331 329 329 331 333 334 337 340 338 328 301 335 348 354 58 157 174 171 169 165 159 157 154 152 151 146 142 148 152 153 154 155 156 157 156 155 153 150 149
333 335 337 337 337 337 338 337 336 337 341 341 333 323 301 334 344 17 112 133 145 149 152 152 151 152 152 148 141 141 151 152 154 157 157 158 156 156 155 154 152 150 149
341 342 344 347 348 349 347 346 345 345 344 341 330 281 312 337 353 125 130 132 138 143 146 147 144 141 134 135 148 152 153 153 155 158 159 157 155 155 155 155 154 152 150
350 352 354 357 0 351 355 358 359 357 351 342 327 283 302 2 129 134 135 134 136 138 136 131 128 134 139 143 145 147 149 151 153 155 158 157 156 156 156 155 152 152 153
359 2 5 8 2 1 4 6 9 360 355 352 332 273 148 126 138 134 134 135 131 125 129 135 138 140 140 142 143 144 147 149 150 150 153 156 157 156 156 156 155 153 152
8 11 14 12 11 9 8 8 14 5 6 5 14 156 144 148 144 142 138 128 127 133 137 138 139 140 141 141 141 143 144 147 150 151 153 156 158 158 159 158 155 153 153
Height
1493 1488 1482 1478 1472 1469 1465 1462 1458 1452 1448 1445 1442 1440 1437 1435 1434 1434 1434 1433 1434 1432 1431 1431 1432 1434 1434 1436 1439 1441 1443 1444 1445 1450 1450 1452 1454 1455 1456 1459 1460 1462 1465
1489 1483 1477 1472 1467 1463 1460 1457 1452 1447 1443 1440 1436 1434 1432 1430 1428 1427 1426 1426 1426 1425 1424 1425 1424 1426 1427 1430 1432 1433 1436 1438 1441 1443 1444 1448 1450 1451 1453 1455 1457 1459 1460
1485 1478 1472 1466 1461 1457 1454 1450 1446 1441 1437 1434 1431 1428 1425 1424 1422 1420 1419 1418 1418 1418 1416 1416 1416 1418 1420 1422 1424 1426 1428 1431 1434 1435 1438 1442 1445 1446 1449 1451 1454 1456 1459
1480 1474 1467 1461 1456 1451 1447 1443 1439 1435 1431 1427 1424 1421 1418 1416 1414 1413 1413 1412 1411 1410 1409 1408 1409 1409 1411 1413 1416 1419 1422 1425 1427 1430 1431 1436 1439 1441 1444 1447 1450 1452 1454
1475 1468 1463 1456 1450 1446 1442 1437 1432 1427 1423 1419 1416 1413 1411 1408 1406 1406 1405 1404 1403 1403 1401 1400 1400 1400 1403 1405 1408 1411 1414 1417 1420 1422 1424 1429 1432 1434 1438 1442 1445 1449 1451
1470 1464 1458 1452 1446 1441 1436 1430 1425 1420 1415 1412 1409 1405 1401 1400 1399 1398 1397 1395 1394 1394 1393 1393 1393 1392 1394 1396 1399 1403 1407 1410 1412 1414 1416 1422 1427 1429 1432 1436 1440 1444 1448
1465 1459 1454 1448 1441 1435 1429 1424 1419 1414 1409 1405 1401 1399 1395 1392 1391 1390 1389 1387 1385 1385 1385 1385 1386 1386 1386 1387 1390 1393 1397 1401 1404 1406 1409 1414 1419 1423 1426 1430 1434 1438 1441
1461 1455 1450 1443 1435 1429 1423 1417 1412 1408 1403 1398 1395 1392 1388 1385 1384 1383 1381 1379 1377 1375 1375 1375 1375 1376 1378 1379 1382 1385 1388 1392 1395 1399 1403 1408 1412 1417 1421 1424 1428 1433 1437
1456 1450 1443 1437 1430 1423 1417 1412 1406 1402 1397 1392 1389 1385 1382 1378 1376 1374 1373 1370 1368 1366 1366 1366 1366 1366 1368 1371 1374 1377 1381 1383 1388 1392 1397 1401 1406 1409 1414 1418 1421 1427 1431
1451 1444 1437 1431 1425 1418 1412 1406 1401 1396 1391 1386 1382 1379 1375 1371 1368 1365 1364 1362 1359 1358 1358 1357 1358 1358 1359 1362 1365 1369 1372 1376 1382 1386 1389 1395 1399 1401 1407 1411 1416 1420 1427
1445 1438 1432 1426 1419 1413 1406 1401 1396 1390 1385 1381 1376 1372 1368 1364 1360 1358 1356 1354 1352 1350 1349 1348 1348 1349 1349 1352 1357 1361 1365 1371 1375 1380 1384 1388 1395 1397 1402 1408 1412 1417 1421
1439 1433 1426 1420 1413 1406 1401 1395 1390 1385 1380 1374 1370 1365 1361 1357 1354 1351 1348 1346 1344 1342 1340 1339 1338 1338 1340 1344 1348 1353 1357 1362 1366 1371 1376 1382 1389 1393 1398 1403 1410 1415 1420
1434 1427 1420 1413 1407 1401 1396 1390 1385 1380 1375 1369 1365 1360 1355 1351 1347 1343 1340 1338 1336 1334 1332 1331 1330 1329 1332 1335 1340 1345 1351 1356 1362 1367 1370 1377 1383 1388 1396 1402 1408 1413 1419
1430 1422 1415 1408 1402 1396 1391 1385 1380 1374 1369 1364 1360 1354 1348 1343 1339 1336 1333 1331 1329 1327 1325 1324 1324 1325 1326 1329 1334 1341 1348 1353 1358 1365 1369 1377 1383 1389 1396 1402 1408 1414 1419
1426 1418 1411 1404 1397 1390 1385 1380 1374 1369 1365 1360 1355 1349 1343 1337 1334 1331 1328 1326 1324 1322 1321 1320 1321 1323 1325 1328 1334 1339 1345 1352 1357 1363 1370 1377 1384 1391 1397 1404 1410 1415 1419
1422 1414 1406 1400 1393 1386 1378 1370 1369 1364 1359 1355 1350 1345 1339 1333 1329 1326 1324 1322 1321 1321 1321 1321 1321 1323 1325 1329 1334 1340 1346 1353 1358 1365 1371 1379 1385 1392 1399 1406 1411 1416 1420
1418 1409 1402 1396 1389 1382 1375 1369 1359 1353 1353 1349 1344 1339 1334 1330 1326 1324 1323 1322 1322 1322 1324 1324 1325 1327 1328 1332 1336 1342 1348 1355 1362 1369 1375 1381 1388 1395 1401 1406 1412 1416 1421
1413 1406 1399 1392 1385 1379 1373 1366 1360 1353 1346 1342 1340 1336 1332 1328 1325 1324 1324 1323 1323 1325 1326 1327 1329 1331 1332 1336 1340 1345 1352 1359 1366 1372 1378 1385 1392 1397 1402 1408 1413 1417 1422
1408 1401 1394 1388 1381 1375 1368 1362 1357 1352 1347 1343 1338 1336 1333 1330 1328 1327 1326 1326 1325 1326 1327 1329 1332 1334 1337 1340 1344 1350 1356 1363 1370 1376 1383 1389 1395 1400 1405 1410 1414 1419 1423
1404 1398 1391 1382 1375 1369 1363 1358 1353 1350 1345 1342 1338 1336 1334 1332 1330 1328 1327 1326 1327 1327 1329 1331 1334 1337 1341 1345 1350 1356 1361 1368 1375 1382 1387 1393 1398 1403 1406 1411 1416 1420 1424
1401 1391 1385 1377 1371 1365 1360 1355 1351 1348 1344 1341 1338 1336 1335 1333 1331 1329 1328 1328 1328 1329 1331 1334 1337 1342 1346 1351 1355 1361 1367 1373 1380 1385 1390 1395 1400 1403 1408 1413 1417 1421 1425
1396 1387 1380 1374 1368 1362 1358 1354 1350 1346 1343 1340 1338 1337 1336 1335 1333 1332 1331 1331 1332 1333 1336 1339 1343 1347 1352 1357 1361 1368 1373 1378 1383 1388 1393 1397 1402 1406 1410 1415 1418 1422 1426
1393 1385 1378 1372 1366 1361 1356 1353 1349 1346 1343 1340 1339 1338 1338 1337 1336 1335 1335 1335 1337 1340 1343 1346 1350 1354 1359 1364 1369 1374 1378 1383 1387 1392 1395 1399 1404 1408 1412 1416 1420 1424 1427
1391 1385 1378 1371 1365 1361 1357 1352 1349 1346 1343 1341 1340 1340 1340 1339 1339 1339 1340 1342 1344 1347 1351 1355 1358 1362 1366 1370 1375 1379 1384 1387 1391 1395 1399 1402 1406 1410 1414 1418 1422 1425 1429
1391 1384 1378 1371 1367 1362 1357 1353 1350 1347 1344 1343 1342 1342 1342 1342 1342 1344 1346 1348 1351 1354 1358 1361 1365 1368 1372 1376 1380 1384 1387 1391 1395 1398 1402 1406 1409 1413 1416 1420 1423 1426 1430
1393 1386 1379 1374 1368 1364 1359 1355 1352 1349 1347 1345 1345 1345 1345 1346 1348 1350 1352 1354 1358 1361 1364 1367 1371 1374 1378 1381 1384 1388 1391 1395 1398 1401 1405 1408 1411 1415 1418 1422 1425 1428 1431